Back to catalog

STARLINK-2754

AliveCommunicationsVLEO
NORAD 48641·PAYLOAD·🇺🇸 United States

Launched May 26, 2021 from Cape Canaveral Space Force Station

Loading…

Next Passes (next 24 hours)

TLE

FreshSource: CelesTrak SupGP

Epoch: Sep 14, 2026, 12:12 UTC

1 48641C 21044D   26257.50881944  .00014465  00000+0  46526-3 0  2577
2 48641  53.1590 315.3653 0001390  74.8176  76.1025 15.31688022    18

Track STARLINK-2754 in real time with AllMySat

Download on the App Store